FW8074 Weather Reports


time (UTC)temp
C
wind
direction
speed
KPH
gust
KPH
rain 1hr
cm
rain 24hr
cm
rain mn
cm
humidity
%
barometer
mb
20260906111620 20 0 0.0 1.6 0.00 0.00 0.00 98 1008.6
20260906110105 20 0 0.0 0.0 0.00 0.00 0.00 98 1008.2
20260906104605 20 0 0.0 0.0 0.00 0.00 0.00 98 1007.7
20260906103105 20 0 0.0 0.0 0.00 0.00 0.00 98 1007.5
20260906101605 20 0 0.0 0.0 0.00 0.00 0.00 98 1007.6
20260906100104 20 0 0.0 1.6 0.00 0.00 0.00 97 1007.6
20260906094601 20 0 0.0 0.0 0.00 0.00 0.00 98 1007.6
20260906093108 20 0 0.0 0.0 0.00 0.00 0.00 98 1007.5
20260906091602 20 0 0.0 0.0 0.00 0.00 0.00 97 1007.3
20260906090104 20 0 0.0 0.0 0.00 0.00 0.00 97 1007.3
20260906084605 21 0 0.0 0.0 0.00 0.00 0.00 97 1007.3
20260906083106 21 0 0.0 0.0 0.00 0.00 0.00 97 1007.2
20260906081603 21 0 0.0 0.0 0.00 0.00 0.00 97 1007.1
20260906080104 21 0 0.0 1.6 0.00 0.00 0.00 97 1007.1
20260906074601 21 0 0.0 0.0 0.00 0.00 0.00 97 1007.2
20260906073104 21 0 0.0 1.6 0.00 0.00 0.00 97 1007.2
20260906071604 21 355 0.0 1.6 0.00 0.00 0.00 96 1007.4
20260906070105 21 0 0.0 1.6 0.00 0.00 0.00 96 1007.4
20260906064606 21 0 0.0 1.6 0.00 0.00 0.00 96 1007.5
20260906063107 21 0 0.0 0.0 0.00 0.00 0.00 96 1007.8
20260906061608 21 0 0.0 0.0 0.00 0.00 0.00 95 1007.6
20260906060105 21 0 0.0 1.6 0.00 0.00 0.00 95 1007.8
20260906054606 21 0 0.0 0.0 0.00 0.00 0.00 95 1007.8
20260906053105 22 0 0.0 1.6 0.00 0.00 0.00 94 1008.1
20260906051614 22 0 0.0 0.0 0.00 0.00 0.00 93 1008.4
20260906050107 22 0 0.0 1.6 0.00 0.00 0.00 93 1008.6
20260906044610 22 0 0.0 1.6 0.00 0.00 0.00 92 1008.5
20260906043104 22 0 0.0 1.6 0.00 0.00 0.00 91 1008.6
20260906041604 22 0 0.0 0.0 0.00 0.00 0.00 90 1008.7
20260906040139 22 0 0.0 0.0 0.00 0.00 0.00 90 1008.7
20260906034620 22 0 0.0 0.0 0.00 0.00 0.00 89 1008.7
20260906033108 23 0 0.0 0.0 0.00 0.00 0.00 88 1008.6
20260906031600 23 0 0.0 0.0 0.00 0.00 0.00 87 1008.6
20260906030104 23 0 0.0 0.0 0.00 0.00 0.00 86 1008.5
20260906024614 23 0 0.0 0.0 0.00 0.00 0.00 86 1008.4
20260906023106 23 0 0.0 0.0 0.00 0.00 0.00 86 1008.3
20260906021602 24 0 0.0 0.0 0.00 0.00 0.00 85 1008.0
20260906020106 24 0 0.0 0.0 0.00 0.00 0.00 85 1008.0
20260906014605 25 0 0.0 0.0 0.00 0.00 0.00 84 1008.2
20260906013119 25 0 0.0 0.0 0.00 0.00 0.00 82 1007.9
20260906011605 25 0 0.0 0.0 0.00 0.00 0.00 81 1007.9
20260906010105 25 0 0.0 3.2 0.00 0.00 0.00 80 1007.9
20260906004600 26 0 0.0 0.0 0.00 0.00 0.00 81 1008.0
20260906003104 26 0 0.0 3.2 0.00 0.00 0.00 80 1007.7
20260906001609 26 266 4.8 9.7 0.00 0.00 0.00 79 1007.8
20260906000104 26 0 0.0 0.0 0.00 0.00 0.00 80 1008.0
20260905234603 26 0 0.0 0.0 0.00 0.00 0.00 78 1008.0
20260905233104 26 0 0.0 0.0 0.00 0.00 0.00 78 1007.9
20260905231611 27 0 0.0 0.0 0.00 0.00 0.00 77 1007.9
20260905230108 27 0 0.0 0.0 0.00 0.00 0.00 76 1007.8
20260905224619 27 0 0.0 0.0 0.00 0.00 0.00 74 1007.8
20260905223118 27 0 1.6 4.8 0.00 0.00 0.00 70 1007.3
20260905221605 28 0 0.0 0.0 0.00 0.00 0.00 71 1006.3
20260905220105 28 0 0.0 6.4 0.00 0.00 0.00 68 1006.0
20260905214608 29 35 0.0 6.4 0.00 0.00 0.00 70 1006.5
20260905213105 30 0 0.0 3.2 0.00 0.00 0.00 65 1007.1
20260905211602 30 0 6.4 17.7 0.00 0.00 0.00 63 1007.3
20260905210107 31 79 1.6 14.5 0.00 0.00 0.00 62 1007.2
20260905204609 32 243 4.8 38.6 0.00 0.00 0.00 59 1006.2
20260905203102 35 0 0.0 0.0 0.00 0.00 0.00 60 1006.2
20260905201612 35 0 0.0 0.0 0.00 0.00 0.00 55 1006.3
20260905200106 35 0 0.0 0.0 0.00 0.00 0.00 58 1005.9
20260905194604 35 0 0.0 0.0 0.00 0.00 0.00 55 1006.2
20260905193104 36 0 0.0 0.0 0.00 0.00 0.00 54 1006.5
20260905191609 36 0 0.0 0.0 0.00 0.00 0.00 52 1006.5
20260905190105 37 0 0.0 0.0 0.00 0.00 0.00 53 1006.6
20260905184612 37 0 0.0 0.0 0.00 0.00 0.00 54 1006.9
20260905183105 36 0 0.0 0.0 0.00 0.00 0.00 54 1007.1
20260905181604 36 0 0.0 0.0 0.00 0.00 0.00 57 1007.3
20260905180108 36 0 0.0 0.0 0.00 0.00 0.00 58 1007.7
20260905174606 35 0 0.0 0.0 0.00 0.00 0.00 58 1008.1
20260905173132 35 0 0.0 0.0 0.00 0.00 0.00 61 1008.2
20260905171604 34 0 0.0 0.0 0.00 0.00 0.00 63 1008.5
20260905170115 34 0 0.0 0.0 0.00 0.00 0.00 62 1008.8
20260905164611 34 0 0.0 0.0 0.00 0.00 0.00 61 1009.0
20260905163124 34 0 0.0 0.0 0.00 0.00 0.00 63 1009.1
20260905161615 33 0 0.0 0.0 0.00 0.00 0.00 66 1009.4
20260905160104 33 0 0.0 0.0 0.00 0.00 0.00 66 1009.6
20260905154616 32 0 0.0 0.0 0.00 0.00 0.00 69 1009.6
20260905153105 32 0 0.0 0.0 0.00 0.00 0.00 70 1009.9
20260905151602 32 0 0.0 0.0 0.00 0.00 0.00 73 1009.9
20260905150111 31 0 0.0 0.0 0.00 0.00 0.00 72 1010.0
20260905144602 31 0 0.0 0.0 0.00 0.00 0.00 74 1009.9
20260905143109 30 0 0.0 0.0 0.00 0.00 0.00 77 1009.9
20260905141606 30 0 0.0 0.0 0.00 0.00 0.00 79 1010.1
20260905140105 29 0 0.0 0.0 0.00 0.00 0.00 81 1010.2
20260905134601 28 0 0.0 0.0 0.00 0.00 0.00 83 1010.2
20260905133106 28 0 0.0 0.0 0.00 0.00 0.00 84 1010.3
20260905131604 27 0 0.0 0.0 0.00 0.00 0.00 88 1010.2
20260905130104 27 0 0.0 0.0 0.00 0.00 0.00 91 1010.5
20260905124605 26 0 0.0 0.0 0.00 0.00 0.00 94 1010.6
20260905123109 25 0 0.0 0.0 0.00 0.00 0.00 97 1010.4
20260905121606 25 0 0.0 0.0 0.00 0.00 0.00 98 1010.3
20260905120108 24 0 0.0 0.0 0.00 0.00 0.00 98 1010.3
20260905114604 24 0 0.0 0.0 0.00 0.00 0.00 98 1010.1
20260905113107 24 0 0.0 0.0 0.00 0.00 0.00 98 1009.9